Tracking 30058 objects as of 10-Dec-2024
HD Live streaming from Space Station
objects crossing your sky now

STARLINK-6228

Track STARLINK-6228 now!
10-day predictions
STARLINK-6228 is classified as:


NORAD ID: 56543
Int'l Code: 2023-065AS
Perigee: 565.0 km
Apogee: 566.9 km
Inclination: 43.0 °
Period: 95.8 minutes
Semi major axis: 6936 km
RCS: Unknown
Launch date: May 14, 2023
Source: United States (US)
Launch site: AIR FORCE EASTERN TEST RANGE (AFETR)
Your satellite tracking list
Your tracking list is empty




NASA's NSSDC Master Catalog

Two Line Element Set (TLE):
1 56543U 23065AS  24344.89803710  .00005081  00000-0  38995-3 0  9993
2 56543  43.0008 174.4471 0001360 268.5905  91.4782 15.02630975 88064
Source of the keplerian elements: AFSPC